This is the latest recevied weather packets stored in our database for station/object KJ5MET. If no packets are shown the sender has not sent any weather packets the latest 10 day(s).
| Time | Temp. | Humidity | Pressure | Rain* | Wind** | Luminosity | Snow |
|---|---|---|---|---|---|---|---|
| 1787945094 | 36.67° C | 50% | 1013.5 hPa | 0 mm | - | - | - |
| 1787944790 | 36.11° C | 53% | 1013.5 hPa | 0 mm | - | - | - |
| 1787944487 | 35.56° C | 53% | 1013.5 hPa | 0 mm | - | - | - |
| 1787944183 | 35° C | 54% | 1013.9 hPa | 0 mm | - | - | - |
| 1787943864 | 35.56° C | 54% | 1013.9 hPa | 0 mm | - | - | - |
| 1787943559 | 36.11° C | 52% | 1013.9 hPa | 0 mm | - | - | - |
| 1787943255 | 36.11° C | 50% | 1013.9 hPa | 0 mm | - | - | - |
| 1787942951 | 36.11° C | 53% | 1014.2 hPa | 0 mm | - | - | - |
| 1787942632 | 35.56° C | 54% | 1014.2 hPa | 0 mm | - | - | - |
| 1787942313 | 36.11° C | 51% | 1014.2 hPa | 0 mm | - | - | - |
| 1787941994 | 36.11° C | 50% | 1014.2 hPa | 0 mm | - | - | - |
| 1787941688 | 36.11° C | 51% | 1014.2 hPa | 0 mm | - | - | - |
| 1787941384 | 36.67° C | 50% | 1014.2 hPa | 0 mm | - | - | - |
| 1787941080 | 36.11° C | 51% | 1014.2 hPa | 0 mm | - | - | - |
| 1787940775 | 36.11° C | 57% | 1014.2 hPa | 0 mm | - | - | - |
| 1787940457 | 35.56° C | 57% | 1014.2 hPa | 0 mm | - | - | - |
| 1787940152 | 36.11° C | 56% | 1014.2 hPa | 0 mm | - | - | - |
| 1787939847 | 36.11° C | 56% | 1014.2 hPa | 0 mm | - | - | - |
| 1787939527 | 35.56° C | 58% | 1014.2 hPa | 0 mm | - | - | - |
| 1787939223 | 35.56° C | 57% | 1014.6 hPa | 0 mm | - | - | - |
| 1787938919 | 35.56° C | 59% | 1014.6 hPa | 0 mm | - | - | - |
| 1787938615 | 35.56° C | 60% | 1014.6 hPa | 0 mm | - | - | - |
| 1787938310 | 35° C | 61% | 1014.6 hPa | 0 mm | - | - | - |
| 1787938006 | 35.56° C | 61% | 1014.6 hPa | 0 mm | - | - | - |
| 1787937702 | 34.44° C | 63% | 1014.6 hPa | 0 mm | - | - | - |
* Rain latest hour (hover to see other rain measurements)
** Current wind speed in m/s (hover to see current wind gust speed)